STARLINK-3764, 52280

Orbit data source: Space-Track

STARLINK-3764, 52280 is a payload satellite owned by SpaceX/Seattle (US) in LEO that was launched on Thu, 21 Apr 2022 UTC via an FALCON 9 launch vehicle from the Air Force Eastern Test Range (AFETR). Payload-class satellites include a variety of spacecraft equipped with specific instruments for various scientific and technological missions. These include communications satellites like Starlink; space stations such as the ISS; scientific satellites like the Hubble; Earth observation satellites from companies like Planet Labs, Umbra, and HawkEye 360; GPS; miniature CubeSats for education and research; and military/defense satellites.

Loading next visibility...
Identifier
52280, 2022-041V
Orbit
LEO
Country
Flag of USUS
Related business
Manufacturer
SpaceX/Seattle
Mission
Operational Commercial Communications
Bus & Motor
STARLINK, Unknown motor
Mass
297 kg wet, ~275 kg dry
Launch date (UTC)
2022-04-21 (4 years ago)
Launch vehicle
FALCON 9
Launch site
Air Force Eastern Test Range (AFETR)
Object type
Payload
Rocket body
Debris
Shape & HBR
Box + 1 Pan, 10.1 m
Radar Cross Section
11.087 m², Large (>1 m²)

Expand to show TLE details & history
Last TLE update: 1 day ago

TLE from 1 day ago
0 STARLINK-3764
1 52280U 22041V   26174.90581336  .00001271  00000-0  97958-4 0  9994
2 52280  53.1599 352.1604 0001286  82.2216 277.8921 15.08831766230400
Epoch: 2026-06-23T21:44Z
TLE epoch observation values (Epoch: 2026-06-23T21:44:22.274Z)
Latitude
-0.00005°
Longitude
113.99689°
Altitude
540.538 km
Speed
7.593 km/s
True Right ascension
23h 28m 38s
True Declination
0° 00' 00"
Sunlit
Object was in daylight at epoch
Visualization orbit readout
Latitude
Unknown
Longitude
Unknown
Altitude
Unknown
Speed
Unknown
Apparent Right ascension
Unknown
Apparent Declination
Unknown
Sunlit
N/A
Visualization observer readout
Local Sidereal Time
08:51:41
Azimuth
Unknown
Elevation
Unknown
Doppler factor
Unknown
Orbital elements
Apogee altitude
540.912 km
Perigee altitude
539.133 km
Semi-major axis
6,918.16 km
Eccentricity
0.00013
Inclination
53.1599°
RAAN
352.1604°
Arg. of periapsis
82.2216°
True anomaly
277.8775°
Mean anomaly
277.8921°
Eccentric anomaly
277.8848°
Mean motion
3.77188 °/min
Orbital period
95.44 mins
BSTAR
0.000097958
Loading maneuver chart data...
Computing Atmospheric mass density...
Loading historical data...
Loading historical data...
Loading historical data...
Loading historical data...
Loading historical data...
Loading historical data...
Loading historical data...

Documentation

Showing up to 5 results
|